Home   Weather   Maintal   Past weeks

Flag for Germany Past Weather in Maintal, Hesse, Germany — Yesterday and Last 2 Weeks

41 °F

Low clouds.

Feels Like: 37 °F
Forecast: 46 / 56 °F
Wind: 6 mph from North

Location: Frankfurt-M-Flughafen Airport

Current Time: Oct 23, 2016 at 5:13:20 AM

Latest Report: Oct 23, 2016 at 4:50 AM

Visibility: 0 mi

Pressure: 29.92 "Hg

Humidity: 100%

Dew Point: 41 °F

Location of MaintalLocation

Past Weather in Maintal — Graph


Maintal Temperature Yesterday

Maximum temperature yesterday: 50 °F (at 12:20 PM)
Minimum temperature yesterday: 39 °F (at 11:50 PM)
Average temperature yesterday: 46 °F

High & Low Weather Summary for the Past Weeks

High64 °F (Oct 16, 3:50 PM)100% (Oct 9, 3:50 AM)30.27 "Hg (Oct 9, 3:50 AM)
Low39 °F (Oct 13, 2:20 AM)51% (Oct 11, 1:50 PM)29.65 "Hg (Oct 14, 7:20 PM)
Average49 °F84%30.05 "Hg
* Reported Oct 8 3:20 AM — Oct 23 3:50 AM, Maintal, Weather by CustomWeather, © 2016

Note: Actual official high and low records may vary slightly from our data, if they occured in-between our weather recording intervals... More about our weather records


Maintal Weather History for the Previous 24 Hours

Scroll right to see more
Time TempWeatherWind HumidityBarometerVisibility
3:50 AM
Sun, Oct 23
43 °FLow clouds.5 mph100%29.95 "Hg1 mi
3:20 AM43 °FLow clouds.6 mph100%29.95 "Hg1 mi
2:50 AM41 °FLow clouds.5 mph100%29.95 "Hg0 mi
2:20 AM41 °FLow clouds.7 mph100%29.95 "Hg1 mi
1:50 AM43 °FFog.6 mph93%29.95 "Hg2 mi
1:20 AM41 °FFog.1 mph100%29.95 "Hg2 mi
12:50 AM39 °FFog.2 mph100%29.95 "Hg1 mi
12:20 AM39 °FFog.1 mph100%29.95 "Hg2 mi
11:50 PM
Sat, Oct 22
39 °FFog.1 mph100%29.95 "Hg2 mi
11:20 PM41 °FFog.1 mph100%29.95 "Hg2 mi
10:50 PM43 °FFog.2 mph93%29.95 "HgN/A
10:20 PM45 °FFog.1 mph93%29.95 "HgN/A
9:50 PM45 °FFog.2 mph93%29.95 "HgN/A
9:20 PM45 °FFog.1 mph93%29.95 "HgN/A
8:50 PM45 °FFog.3 mph100%29.95 "HgN/A
8:20 PM45 °FFog.3 mph100%29.95 "HgN/A
7:50 PM45 °FFog.2 mph100%29.95 "HgN/A
7:20 PM46 °FFog.2 mph93%29.95 "HgN/A
6:50 PM46 °FPassing clouds.3 mph100%29.95 "HgN/A
6:20 PM48 °FPassing clouds.3 mph94%29.95 "HgN/A
5:50 PM48 °FPartly sunny.3 mph94%29.92 "HgN/A
5:20 PM48 °FPartly sunny.3 mph94%29.92 "HgN/A
4:50 PM48 °FBroken clouds.3 mph94%29.92 "HgN/A
4:20 PM48 °FSprinkles. Broken clouds.7 mph87%29.92 "HgN/A
3:50 PM50 °FSprinkles. Broken clouds.6 mph88%29.92 "HgN/A
3:20 PM50 °FScattered showers. Broken clouds.6 mph88%29.92 "HgN/A
2:50 PM48 °FRain showers. Broken clouds.7 mph87%29.92 "HgN/A
2:20 PM50 °FSprinkles. Broken clouds.6 mph82%29.92 "HgN/A
1:50 PM50 °FScattered showers. Broken clouds.8 mph82%29.92 "HgN/A
1:20 PM50 °FBroken clouds.8 mph82%29.92 "HgN/A
12:50 PM50 °FBroken clouds.8 mph88%29.92 "HgN/A
12:20 PM50 °FBroken clouds.7 mph88%29.92 "HgN/A
11:50 AM48 °FBroken clouds.7 mph87%29.92 "Hg5 mi
11:20 AM46 °FPartly sunny.7 mph93%29.92 "Hg4 mi
10:50 AM46 °FBroken clouds.8 mph93%29.92 "Hg4 mi
10:20 AM46 °FFog.9 mph93%29.92 "Hg3 mi
9:50 AM45 °FFog.9 mph100%29.92 "Hg3 mi
9:20 AM45 °FFog.8 mph93%29.92 "Hg2 mi
8:50 AM45 °FFog.6 mph93%29.92 "Hg2 mi
8:20 AM45 °FFog.6 mph93%29.92 "Hg2 mi
7:50 AM43 °FFog.6 mph100%29.92 "Hg3 mi
7:20 AM43 °FFog.7 mph100%29.92 "Hg3 mi
6:50 AM43 °FFog.8 mph100%29.89 "Hg3 mi
6:20 AM43 °FPartly cloudy.8 mph100%29.92 "Hg4 mi
5:50 AM43 °FPartly cloudy.8 mph100%29.92 "Hg4 mi
5:20 AM43 °FLight rain. Partly cloudy.8 mph100%29.92 "Hg4 mi
Weather by CustomWeather, © 2016

See weather overviewHow to use our weather pages